User: anonymous   Login
Location: Unspecified
(0.0000°N, 0.0000°E)
Time: 12:29:23
(UTC+02:00)
Language:

Centaur D-1AR AC-41 - Orbit

View from above orbital plane
View from above orbital plane
View from above satellite
View from above satellite

Ground track
Ground track

The orbit data is extracted from the following two-line orbital elements,

1 10976U 78068B   15148.24958562 -.00000211  00000-0 -55043-3 0  9998
2 10976 021.4998 100.6693 7187615 159.1010 358.0926 02.22296149299544
Epoch (UTC): 28 May 2015 05:59:24
Eccentricity: 0.7187615
inclination: 21.4998°
perigee height: 596 km
apogee height: 36246 km
right ascension of ascending node: 100.6693°
argument of perigee: 159.1010°
revolutions per day: 2.22296149
mean anomaly at epoch: 358.0926°
orbit number at epoch: 29954

The dashed part of the orbit path shows where the satellite is in the earth's shadow,  

DLR